sat.trackr.live / text

‹ back to catalog

COSMOS 2498 (RODNIK-S *)

NORAD 39763 · 2014-028C

PAYLOAD ACTIVE UNKNOWN

§ Identity

Operator
Country
CIS
Launch date
2014-05-23
Launch site
PLMSC
Launch vehicle
Mass (kg)
RCS (m²)
1.76

External: N2YO · Heavens-Above · Gunter

§ Orbital elements

Epoch: 2026-09-09T04:03:39.298176Z

Period
115.85 min
Inclination
82.4432°
Eccentricity
0.0020457
Mean motion
12.42982964 rev/d
Perigee alt
1,477.9 km
Apogee alt
1,510.1 km
Semi-major
7,872.1 km
B*
-1.9930e-5
RAAN
56.2813°
Arg perigee
250.5076°
Mean anomaly
109.3794°
Rev number
55,798

§ Raw data

COSMOS 2498 (RODNIK-S *)1 39763U 14028C   26252.16920484  .00000007  00000+0 -19930-4 0  99972 39763  82.4432  56.2813 0020457 250.5076 109.3794 12.42982964557985

JSON: /api/v1/satellites/39763 · /tle

For live sub-satellite position, see the globe view (requires WebGL).

§ Visibility from observer

Set your observer location to see the next 7 days of passes ≥ 10°. The values pass through the URL so the page stays shareable.

No JS? Fill the form by hand. The geolocation button needs JavaScript.

§ Radio — SatNOGS DB

ModeDescriptionDownlinkUplink
FM UHF Unknown 388.687 MHz
FM UHF Unknown 388.187 MHz

2 transmitters · refreshed weekly from db.satnogs.org